This is the latest recevied weather packets stored in our database for station/object W4SNA-2. If no packets are shown the sender has not sent any weather packets the latest 1 day(s).
| Time | Temp. | Humidity | Pressure | Rain* | Wind** | Luminosity | Snow |
|---|---|---|---|---|---|---|---|
| 1778028620 | 18.89° C | 53% | 1015.2 hPa | 0 mm | 1.79 m/s, 206° | - | - |
| 1778028321 | 19.44° C | 53% | 1015.1 hPa | 0 mm | 2.24 m/s, 195° | - | - |
| 1778028020 | 19.44° C | 52% | 1015.2 hPa | 0 mm | 2.24 m/s, 195° | - | - |
| 1778027721 | 19.44° C | 52% | 1015.1 hPa | 0 mm | 2.24 m/s, 196° | - | - |
| 1778027420 | 19.44° C | 52% | 1015.2 hPa | 0 mm | 1.79 m/s, 203° | - | - |
| 1778027122 | 19.44° C | 52% | 1015.2 hPa | 0 mm | 2.24 m/s, 198° | - | - |
| 1778026820 | 19.44° C | 51% | 1015.1 hPa | 0 mm | 1.79 m/s, 197° | - | - |
| 1778026521 | 19.44° C | 51% | 1015.1 hPa | 0 mm | 1.79 m/s, 194° | - | - |
| 1778026220 | 19.44° C | 50% | 1015.1 hPa | 0 mm | 2.24 m/s, 199° | - | - |
| 1778025921 | 19.44° C | 50% | 1015 hPa | 0 mm | 3.13 m/s, 196° | - | - |
| 1778025620 | 20° C | 50% | 1015 hPa | 0 mm | 1.79 m/s, 200° | - | - |
| 1778025321 | 20° C | 50% | 1014.9 hPa | 0 mm | 2.24 m/s, 195° | - | - |
| 1778025024 | 20° C | 50% | 1015 hPa | 0 mm | 2.68 m/s, 205° | - | - |
| 1778024724 | 20° C | 49% | 1014.9 hPa | 0 mm | 2.68 m/s, 198° | - | - |
| 1778024421 | 20° C | 49% | 1014.9 hPa | 0 mm | 1.79 m/s, 202° | - | - |
| 1778024124 | 20° C | 48% | 1015 hPa | 0 mm | 2.24 m/s, 200° | - | - |
| 1778023822 | 20° C | 48% | 1014.7 hPa | 0 mm | 2.68 m/s, 198° | - | - |
| 1778023521 | 20° C | 48% | 1014.6 hPa | 0 mm | 3.13 m/s, 196° | - | - |
| 1778023220 | 20° C | 49% | 1014.7 hPa | 0 mm | 2.24 m/s, 192° | - | - |
| 1778022924 | 20° C | 49% | 1014.8 hPa | 0 mm | 2.68 m/s, 196° | - | - |
| 1778022622 | 20° C | 49% | 1014.9 hPa | 0 mm | 2.24 m/s, 197° | - | - |
| 1778022327 | 20.56° C | 49% | 1014.8 hPa | 0 mm | 1.79 m/s, 197° | - | - |
| 1778022024 | 20.56° C | 48% | 1014.9 hPa | 0 mm | 2.24 m/s, 194° | - | - |
| 1778021722 | 20.56° C | 48% | 1014.7 hPa | 0 mm | 2.24 m/s, 196° | - | - |
| 1778021420 | 20.56° C | 48% | 1014.7 hPa | 0 mm | 2.24 m/s, 196° | - | - |
* Rain latest hour (hover to see other rain measurements)
** Current wind speed in m/s (hover to see current wind gust speed)